| time (UTC) | temp C | wind direction | speed KPH | gust KPH | rain 1hr cm | rain 24hr cm | rain mn cm | humidity % | barometer mb |
| 20260504081529 | -17 | 0.0 | 0.0 | 0.00 | 0.00 | 0.00 | 1008.2 | ||
| 20260504050018 | 0 | 269 | 0.0 | 3.2 | 0.00 | 0.00 | 0.00 | 90 | 1008.4 |
| 20260504044532 | -1 | 333 | 0.0 | 0.0 | 0.00 | 0.00 | 0.00 | 90 | 1008.5 |
| 20260504043034 | -1 | 333 | 0.0 | 0.0 | 0.00 | 0.00 | 0.00 | 90 | 1008.5 |
| 20260504041507 | -1 | 333 | 0.0 | 0.0 | 0.00 | 0.00 | 0.00 | 88 | 1008.4 |
| 20260504040021 | -1 | 326 | 0.0 | 0.0 | 0.00 | 0.00 | 0.00 | 87 | 1008.3 |
| 20260504034518 | -1 | 326 | 0.0 | 0.0 | 0.00 | 0.00 | 0.00 | 86 | 1008.3 |
| 20260504033022 | -1 | 298 | 0.0 | 0.0 | 0.00 | 0.00 | 0.00 | 85 | 1008.4 |
| 20260504031525 | -1 | 298 | 0.0 | 0.0 | 0.00 | 0.00 | 0.00 | 85 | 1008.4 |
| 20260504030015 | -1 | 300 | 0.0 | 0.0 | 0.00 | 0.00 | 0.00 | 84 | 1008.2 |
| 20260504024516 | 0 | 300 | 0.0 | 0.0 | 0.00 | 0.00 | 0.00 | 82 | 1008.3 |
| 20260504023024 | 0 | 300 | 0.0 | 0.0 | 0.00 | 0.00 | 0.00 | 81 | 1008.4 |
| 20260504021532 | 0 | 300 | 0.0 | 0.0 | 0.00 | 0.00 | 0.00 | 80 | 1008.6 |
| 20260504020035 | 0 | 300 | 0.0 | 0.0 | 0.00 | 0.00 | 0.00 | 79 | 1008.4 |
| 20260504014517 | 0 | 291 | 0.0 | 0.0 | 0.00 | 0.00 | 0.00 | 78 | 1008.4 |
| 20260504013019 | 1 | 290 | 0.0 | 0.0 | 0.00 | 0.00 | 0.00 | 77 | 1008.3 |
| 20260504011524 | 1 | 290 | 0.0 | 0.0 | 0.00 | 0.00 | 0.00 | 78 | 1008.1 |
| 20260504010004 | 1 | 290 | 0.0 | 0.0 | 0.00 | 0.00 | 0.00 | 77 | 1007.7 |
| 20260504004517 | 2 | 290 | 0.0 | 0.0 | 0.00 | 0.00 | 0.00 | 76 | 1007.6 |
| 20260504003013 | 2 | 290 | 0.0 | 3.2 | 0.00 | 0.00 | 0.00 | 74 | 1007.6 |
| 20260504001505 | 3 | 281 | 1.6 | 4.8 | 0.00 | 0.00 | 0.00 | 71 | 1007.3 |
| 20260504000004 | 5 | 296 | 0.0 | 3.2 | 0.00 | 0.00 | 0.00 | 60 | 1007.2 |
| 20260503234509 | 6 | 255 | 0.0 | 3.2 | 0.00 | 0.00 | 0.00 | 53 | 1007.2 |
| 20260503233010 | 7 | 69 | 4.8 | 11.3 | 0.00 | 0.00 | 0.00 | 53 | 1007.0 |
| 20260503231521 | 7 | 209 | 0.0 | 6.4 | 0.00 | 0.00 | 0.00 | 49 | 1006.9 |
| 20260503230004 | 7 | 319 | 1.6 | 8.0 | 0.00 | 0.00 | 0.00 | 49 | 1006.9 |
| 20260503224508 | 7 | 304 | 4.8 | 9.7 | 0.00 | 0.00 | 0.00 | 47 | 1006.9 |
| 20260503223013 | 7 | 333 | 3.2 | 8.0 | 0.00 | 0.00 | 0.00 | 51 | 1006.8 |
| 20260503221515 | 8 | 275 | 3.2 | 9.7 | 0.00 | 0.00 | 0.00 | 47 | 1006.7 |
| 20260503220018 | 8 | 288 | 3.2 | 14.5 | 0.00 | 0.00 | 0.00 | 47 | 1006.7 |
| 20260503214508 | 8 | 252 | 6.4 | 16.1 | 0.00 | 0.00 | 0.00 | 47 | 1006.5 |
| 20260503213007 | 8 | 350 | 4.8 | 17.7 | 0.00 | 0.00 | 0.00 | 48 | 1006.4 |
| 20260503211513 | 8 | 231 | 1.6 | 14.5 | 0.00 | 0.00 | 0.00 | 47 | 1006.4 |
| 20260503210016 | 8 | 347 | 1.6 | 19.3 | 0.00 | 0.00 | 0.00 | 46 | 1006.3 |
| 20260503204522 | 8 | 325 | 4.8 | 14.5 | 0.00 | 0.00 | 0.00 | 48 | 1006.5 |
| 20260503203004 | 8 | 329 | 4.8 | 19.3 | 0.00 | 0.03 | 0.00 | 47 | 1006.2 |
| 20260503201512 | 8 | 351 | 8.0 | 25.7 | 0.00 | 0.05 | 0.00 | 43 | 1006.2 |
| 20260503200016 | 9 | 223 | 6.4 | 24.1 | 0.00 | 0.08 | 0.00 | 44 | 1006.1 |
| 20260503194521 | 8 | 304 | 6.4 | 24.1 | 0.00 | 0.10 | 0.00 | 40 | 1006.2 |
| 20260503193031 | 8 | 5 | 8.0 | 20.9 | 0.00 | 0.15 | 0.00 | 45 | 1006.2 |
| 20260503191515 | 8 | 246 | 4.8 | 22.5 | 0.00 | 0.20 | 0.00 | 42 | 1006.3 |
| 20260503190012 | 8 | 279 | 4.8 | 22.5 | 0.00 | 0.20 | 0.00 | 45 | 1006.4 |
| 20260503184515 | 8 | 322 | 11.3 | 25.7 | 0.00 | 0.20 | 0.00 | 43 | 1006.4 |
| 20260503183020 | 8 | 83 | 1.6 | 22.5 | 0.00 | 0.20 | 0.00 | 44 | 1006.0 |
| 20260503181527 | 8 | 263 | 4.8 | 19.3 | 0.00 | 0.20 | 0.00 | 43 | 1006.0 |
| 20260503180009 | 8 | 344 | 6.4 | 19.3 | 0.00 | 0.20 | 0.00 | 44 | 1006.0 |
| 20260503174524 | 8 | 339 | 9.7 | 29.0 | 0.00 | 0.20 | 0.00 | 43 | 1006.0 |
| 20260503173028 | 9 | 295 | 9.7 | 22.5 | 0.00 | 0.20 | 0.00 | 44 | 1005.8 |
| 20260503171522 | 9 | 34 | 4.8 | 20.9 | 0.00 | 0.20 | 0.00 | 46 | 1005.9 |